EN

Hourly Weather Abdul-Zavod

Today, 14 May, Friday

Time Temperature Precipitation Wind Pressure Humidity
00:00 +18°C° 0 mm 2 mps 756 mmHg 59%
01:00 +17°C° 0 mm 2 mps 756 mmHg 58%
02:00 +17°C° 0 mm 2 mps 756 mmHg 58%
03:00 +17°C° 0 mm 2 mps 756 mmHg 59%
04:00 +17°C° 0 mm 2 mps 756 mmHg 59%
05:00 +18°C° 0 mm 2 mps 756 mmHg 59%
06:00 +19°C° 0 mm 2 mps 757 mmHg 59%
07:00 +21°C° 0 mm 3 mps 757 mmHg 52%
08:00 +23°C° 0 mm 4 mps 756 mmHg 46%
09:00 +26°C° 0 mm 5 mps 756 mmHg 39%
10:00 +27°C° 0 mm 5 mps 756 mmHg 37%
11:00 +28°C° 0 mm 6 mps 756 mmHg 34%
12:00 +29°C° 0 mm 6 mps 756 mmHg 31%
13:00 +30°C° 0 mm 6 mps 756 mmHg 31%
14:00 +30°C° 0 mm 6 mps 756 mmHg 32%
15:00 +30°C° 0 mm 5 mps 755 mmHg 32%
16:00 +28°C° 0 mm 5 mps 755 mmHg 38%
17:00 +27°C° 0 mm 4 mps 755 mmHg 44%
18:00 +25°C° 0 mm 3 mps 755 mmHg 49%
19:00 +24°C° 0 mm 3 mps 755 mmHg 50%
20:00 +22°C° 0 mm 3 mps 755 mmHg 51%
21:00 +20°C° 0 mm 3 mps 755 mmHg 52%
22:00 +19°C° 0 mm 2 mps 755 mmHg 53%
23:00 +19°C° 0 mm 2 mps 755 mmHg 54%

Tomorrow, 15 May, Saturday

Time Temperature Precipitation Wind Pressure Humidity
00:00 +18°C° 0 mm 2 mps 755 mmHg 55%
01:00 +18°C° 0 mm 2 mps 755 mmHg 54%
02:00 +17°C° 0 mm 2 mps 755 mmHg 54%
03:00 +17°C° 0 mm 2 mps 755 mmHg 53%
04:00 +18°C° 0 mm 2 mps 755 mmHg 54%
05:00 +19°C° 0 mm 2 mps 755 mmHg 54%
06:00 +20°C° 0 mm 2 mps 756 mmHg 55%
07:00 +22°C° 0 mm 3 mps 756 mmHg 49%
08:00 +25°C° 0 mm 4 mps 756 mmHg 42%
09:00 +27°C° 0 mm 4 mps 755 mmHg 36%
10:00 +28°C° 0 mm 5 mps 755 mmHg 33%
11:00 +29°C° 0 mm 5 mps 755 mmHg 31%
12:00 +30°C° 0 mm 5 mps 755 mmHg 28%
13:00 +32°C° 0 mm 5 mps 755 mmHg 28%
14:00 +32°C° 0 mm 5 mps 755 mmHg 27%
15:00 +32°C° 0 mm 4 mps 755 mmHg 27%
16:00 +30°C° 0 mm 4 mps 754 mmHg 33%
17:00 +28°C° 0 mm 3 mps 754 mmHg 39%
18:00 +27°C° 0 mm 2 mps 754 mmHg 45%
19:00 +25°C° 0 mm 2 mps 754 mmHg 46%
20:00 +24°C° 0 mm 2 mps 754 mmHg 47%
21:00 +21°C° 0 mm 2 mps 754 mmHg 48%
22:00 +21°C° 0 mm 2 mps 754 mmHg 48%
23:00 +20°C° 0 mm 2 mps 754 mmHg 49%

Day after tomorrow, 16 May, Sunday

Time Temperature Precipitation Wind Pressure Humidity
00:00 +19°C° 0 mm 2 mps 754 mmHg 50%
01:00 +19°C° 0 mm 2 mps 754 mmHg 50%
02:00 +19°C° 0 mm 2 mps 754 mmHg 51%
03:00 +19°C° 0 mm 1 mps 754 mmHg 52%
04:00 +20°C° 0 mm 1 mps 754 mmHg 52%
05:00 +21°C° 0 mm 1 mps 754 mmHg 52%
06:00 +21°C° 0 mm 2 mps 754 mmHg 52%
07:00 +24°C° 0 mm 2 mps 754 mmHg 47%
08:00 +26°C° 0 mm 3 mps 754 mmHg 43%
09:00 +28°C° 0 mm 4 mps 754 mmHg 38%
10:00 +29°C° 0 mm 4 mps 754 mmHg 34%
11:00 +30°C° 0 mm 4 mps 754 mmHg 31%
12:00 +33°C° 0 mm 5 mps 754 mmHg 27%
13:00 +33°C° 0 mm 4 mps 754 mmHg 26%
14:00 +33°C° 0 mm 4 mps 753 mmHg 26%
15:00 +33°C° 0 mm 4 mps 753 mmHg 25%
16:00 +31°C° 0 mm 3 mps 753 mmHg 31%
17:00 +29°C° 0 mm 3 mps 753 mmHg 38%
18:00 +28°C° 0 mm 2 mps 752 mmHg 44%
19:00 +27°C° 0 mm 2 mps 752 mmHg 44%
20:00 +25°C° 0 mm 2 mps 752 mmHg 45%
21:00 +24°C° 0 mm 2 mps 752 mmHg 46%
22:00 +23°C° 0 mm 2 mps 753 mmHg 48%
23:00 +21°C° 0 mm 2 mps 753 mmHg 49%

17 May, Monday

Time Temperature Precipitation Wind Pressure Humidity
00:00 +20°C° 0 mm 2 mps 753 mmHg 51%
01:00 +20°C° 0 mm 2 mps 753 mmHg 50%
02:00 +20°C° 0 mm 2 mps 753 mmHg 50%
03:00 +20°C° 0 mm 2 mps 753 mmHg 49%
04:00 +21°C° 0 mm 2 mps 753 mmHg 51%
05:00 +21°C° 0 mm 2 mps 753 mmHg 52%
06:00 +23°C° 0 mm 1 mps 753 mmHg 54%
07:00 +25°C° 0 mm 2 mps 753 mmHg 50%
08:00 +27°C° 0 mm 3 mps 754 mmHg 45%
09:00 +28°C° 0 mm 3 mps 754 mmHg 41%
10:00 +29°C° 0 mm 3 mps 754 mmHg 38%
11:00 +30°C° 0 mm 3 mps 753 mmHg 35%
12:00 +33°C° 0 mm 3 mps 753 mmHg 32%
13:00 +32°C° 0 mm 2 mps 753 mmHg 30%
14:00 +32°C° 0 mm 2 mps 753 mmHg 28%
15:00 +32°C° 0 mm 2 mps 753 mmHg 26%
16:00 +30°C° 0 mm 2 mps 753 mmHg 33%
17:00 +28°C° 0 mm 3 mps 753 mmHg 40%
18:00 +27°C° 0 mm 3 mps 752 mmHg 47%
19:00 +25°C° 0 mm 2 mps 752 mmHg 48%
20:00 +24°C° 0 mm 1 mps 753 mmHg 49%
21:00 +23°C° 0 mm 1 mps 753 mmHg 50%
22:00 +22°C° 0 mm 1 mps 753 mmHg 51%
23:00 +22°C° 0 mm 1 mps 753 mmHg 52%

18 May, Tuesday

Time Temperature Precipitation Wind Pressure Humidity
00:00 +22°C° 0 mm 1 mps 753 mmHg 52%
01:00 +21°C° 0 mm 1 mps 753 mmHg 53%
02:00 +19°C° 0 mm 2 mps 753 mmHg 55%
03:00 +19°C° 0 mm 2 mps 753 mmHg 56%
04:00 +20°C° 0 mm 2 mps 753 mmHg 56%
05:00 +22°C° 0 mm 1 mps 753 mmHg 57%
06:00 +23°C° 0 mm 1 mps 753 mmHg 57%
07:00 +25°C° 0 mm 1 mps 753 mmHg 52%
08:00 +26°C° 0 mm 2 mps 752 mmHg 48%
09:00 +28°C° 0 mm 2 mps 752 mmHg 44%
10:00 +29°C° 0 mm 2 mps 752 mmHg 40%
11:00 +30°C° 0 mm 2 mps 752 mmHg 36%
12:00 +31°C° 0 mm 2 mps 752 mmHg 32%
13:00 +31°C° 0 mm 1 mps 752 mmHg 30%
14:00 +32°C° 0 mm 1 mps 752 mmHg 27%
15:00 +32°C° 0 mm 1 mps 752 mmHg 25%
16:00 +31°C° 0 mm 1 mps 752 mmHg 29%
17:00 +30°C° 0 mm 1 mps 751 mmHg 33%
18:00 +29°C° 0 mm 1 mps 751 mmHg 37%
19:00 +27°C° 0 mm 2 mps 751 mmHg 42%
20:00 +24°C° 0 mm 2 mps 751 mmHg 48%
21:00 +21°C° 0 mm 3 mps 752 mmHg 53%
22:00 +21°C° 0 mm 3 mps 752 mmHg 57%
23:00 +20°C° 0 mm 2 mps 752 mmHg 60%

19 May, Wednesday

Time Temperature Precipitation Wind Pressure Humidity
00:00 +20°C° 0 mm 2 mps 752 mmHg 63%
01:00 +19°C° 0 mm 2 mps 752 mmHg 64%
02:00 +20°C° 0 mm 1 mps 752 mmHg 64%
03:00 +20°C° 0 mm 1 mps 752 mmHg 65%
04:00 +21°C° 0 mm 1 mps 752 mmHg 63%
05:00 +22°C° 0 mm 1 mps 752 mmHg 62%
06:00 +23°C° 0 mm 1 mps 752 mmHg 61%
07:00 +24°C° 0 mm 2 mps 752 mmHg 57%
08:00 +26°C° 0 mm 3 mps 752 mmHg 52%
09:00 +28°C° 0 mm 3 mps 752 mmHg 48%
10:00 +29°C° 0 mm 3 mps 752 mmHg 43%
11:00 +30°C° 0 mm 3 mps 752 mmHg 38%
12:00 +31°C° 0 mm 3 mps 752 mmHg 34%
13:00 +31°C° 0 mm 3 mps 752 mmHg 31%
14:00 +32°C° 0 mm 2 mps 752 mmHg 29%
15:00 +32°C° 0 mm 2 mps 752 mmHg 27%
16:00 +31°C° 0 mm 2 mps 752 mmHg 31%
17:00 +30°C° 0 mm 2 mps 751 mmHg 36%
18:00 +29°C° 0 mm 1 mps 751 mmHg 40%
19:00 +27°C° 0 mm 2 mps 751 mmHg 46%
20:00 +25°C° 0 mm 3 mps 752 mmHg 53%
21:00 +22°C° 0 mm 3 mps 752 mmHg 59%
22:00 +21°C° 0 mm 4 mps 752 mmHg 62%
23:00 +21°C° 0 mm 4 mps 752 mmHg 65%
Show more